GFSFLT2_250_spd_021.txt.gz
Wind_Speed
88 85 83 71 51 36 23 16 15 16 19 19 18 19 20 21 21 26 30 30 28 28 29 30 29 30 30 30 26 21 20 19
82 75 55 39 28 19 17 17 18 20 21 20 21 22 19 19 25 28 30 30 28 27 26 26 27 27 28 29 27 24 21 20
54 42 29 21 18 15 16 19 20 22 23 24 23 23 22 26 30 31 30 28 27 27 27 27 27 27 26 26 26 24 22 20
31 24 20 18 19 19 19 21 21 24 27 30 31 30 30 31 32 32 32 32 31 29 27 27 28 29 29 28 27 26 25 23
22 20 16 17 19 21 24 25 26 29 31 34 35 36 37 37 36 36 36 37 36 35 33 30 27 27 28 31 31 30 28 28
21 21 23 26 26 29 31 33 37 39 40 41 42 43 43 41 41 42 42 40 39 38 36 36 36 34 32 30 31 33 34 34
27 27 31 32 35 36 37 39 43 44 43 41 42 44 45 45 45 45 45 44 42 42 42 43 44 44 43 41 38 34 34 35
31 32 36 39 42 41 43 45 43 45 43 43 44 46 46 46 48 47 49 49 50 50 50 50 51 50 49 48 46 45 42 41
37 38 40 39 38 41 43 46 48 47 45 47 47 47 49 49 49 51 53 55 56 57 57 58 58 57 55 55 55 52 51 51
39 41 41 39 39 41 44 46 44 43 44 46 50 51 52 54 56 57 58 59 60 61 62 60 59 58 59 61 63 64 63 64
39 36 36 40 40 44 49 43 43 46 48 49 51 53 56 58 61 62 62 62 63 64 64 63 62 65 67 67 67 67 69 69
38 38 41 43 44 48 44 47 49 50 51 52 55 58 60 62 63 65 65 63 65 69 69 68 69 68 74 75 75 75 78 80
45 46 44 41 42 47 50 49 51 54 58 61 62 64 67 68 68 68 68 71 73 75 73 76 80 84 87 84 86 87 88 90
40 41 45 48 50 50 52 55 59 63 66 69 69 73 75 75 74 73 81 83 83 84 85 86 87 92 94 99 97 96 101 99
45 47 49 50 52 54 58 61 64 66 70 72 75 77 76 78 79 79 83 87 88 90 91 93 95 100 106 107 107 106 107 110
50 50 51 53 57 60 63 65 68 71 70 72 76 79 82 84 87 91 95 94 95 97 99 103 107 108 112 116 115 115 113 113
51 52 56 59 62 66 68 68 74 73 79 81 86 88 90 94 96 99 103 103 104 105 107 111 117 121 121 119 119 119 117 110
53 58 62 63 67 69 72 73 78 80 85 91 94 98 101 103 105 107 110 113 114 117 118 124 127 127 126 123 119 115 110 104
61 65 67 68 72 74 78 83 86 92 95 99 102 104 109 112 115 117 119 120 122 126 130 134 132 128 124 118 109 103 99 97
65 68 72 74 77 81 86 91 95 98 102 105 109 112 116 119 122 125 127 130 134 138 136 134 128 122 115 107 102 99 96 92

GFSFLT2_250_spd_024.txt.gz
Wind_Speed
108 102 95 85 78 71 57 47 34 24 20 18 20 21 22 23 26 28 29 31 31 31 29 27 27 27 27 29 30 28 23 20
94 86 79 71 64 49 40 28 25 21 19 18 22 25 28 29 31 32 32 32 31 30 29 28 27 27 27 28 28 28 27 24
79 74 62 51 45 31 27 26 25 22 22 24 27 30 30 33 32 34 33 33 32 32 32 30 28 26 25 25 26 27 27 26
65 52 50 36 29 27 28 28 28 29 30 31 33 37 38 38 38 36 36 35 34 33 32 31 30 28 28 28 27 27 26 26
49 37 31 30 30 31 34 33 36 38 39 39 40 42 42 39 37 39 38 37 35 35 35 34 33 34 34 34 35 34 32 29
34 28 30 35 34 37 38 38 41 42 44 46 46 44 43 42 42 42 42 41 41 40 39 39 42 43 41 41 41 41 40 39
31 33 33 38 39 40 43 44 46 43 44 45 46 47 46 46 47 47 46 46 45 45 45 45 45 45 47 47 46 45 42 41
32 38 41 42 44 46 47 48 46 45 46 46 48 47 47 46 46 46 48 48 49 51 53 53 52 52 51 51 50 47 45 43
36 12 55 47 46 47 45 43 43 45 48 48 45 46 48 51 50 50 51 53 55 56 57 58 58 57 56 54 52 53 53 51
35 43 44 44 39 39 42 44 47 49 50 45 49 53 52 54 55 59 58 56 58 60 61 61 60 59 58 60 60 61 59 59
40 39 44 45 46 46 45 46 46 47 50 51 52 55 56 59 59 60 62 64 65 64 64 64 62 63 70 70 69 70 67 66
40 44 46 39 43 45 47 48 51 51 52 53 57 59 60 61 64 65 64 65 66 65 69 71 70 71 71 74 76 76 75 75
45 44 44 45 50 51 53 51 51 55 57 58 61 60 64 66 68 68 71 73 76 79 76 77 80 84 84 83 81 81 84 86
44 46 47 52 55 55 55 55 59 62 62 62 65 64 66 71 74 75 78 83 85 87 88 89 88 93 93 93 90 88 90 91
50 51 51 56 57 56 59 63 67 68 69 71 72 73 76 80 83 85 88 90 95 96 99 100 100 101 105 106 102 100 99 99
56 55 55 59 62 64 66 68 71 73 74 76 78 81 85 89 93 96 98 99 102 106 107 110 113 113 115 117 119 118 115 106
59 56 60 62 66 68 70 73 77 78 81 83 88 92 96 99 103 105 107 110 114 115 116 120 123 124 124 124 126 127 124 115
59 63 65 66 68 73 77 81 84 87 90 93 96 100 104 108 111 115 119 121 123 125 125 127 130 131 130 124 122 121 119 111
63 66 69 72 74 77 79 84 87 90 94 99 103 108 112 117 120 126 129 131 133 131 133 129 126 125 124 118 114 108 103 100
63 67 71 74 77 82 85 87 92 95 102 107 112 116 120 127 131 135 135 135 132 128 123 117 115 109 109 106 103 98 95 93

GFSFLT2_250_spd_030.txt.gz
Wind_Speed
95 96 95 100 98 98 99 98 90 71 63 56 45 38 38 36 35 36 37 37 39 42 44 42 38 37 34 31 29 26 24 24
92 96 94 92 93 95 88 82 64 54 50 44 41 38 38 41 42 45 45 45 45 47 46 45 39 39 37 34 32 31 28 29
97 92 93 95 94 81 76 58 50 48 45 45 44 45 46 46 47 47 49 50 50 49 47 44 42 39 38 35 33 34 31 31
92 94 95 92 80 73 61 56 48 45 45 46 47 49 52 52 53 52 49 48 48 46 44 44 43 41 40 40 39 37 35 35
93 84 68 70 58 55 49 45 44 47 47 47 47 51 57 55 55 52 46 46 48 42 40 40 43 43 41 41 41 42 41 41
78 66 64 62 49 43 44 45 47 47 43 47 49 50 50 48 48 48 47 49 46 43 45 44 44 44 45 46 46 46 46 44
67 57 50 44 39 42 41 36 42 50 51 50 50 51 51 49 49 47 44 46 47 48 47 48 50 52 52 51 50 50 49 48
58 52 43 42 40 41 43 37 39 51 52 50 50 46 50 49 48 48 50 50 48 51 54 54 55 55 56 54 54 53 53 51
45 40 39 35 44 50 56 47 39 50 52 53 51 54 56 58 57 55 55 54 55 57 58 59 61 61 60 60 59 56 58 58
42 39 35 42 47 50 49 46 49 55 54 54 55 56 61 62 61 60 59 60 62 64 63 63 64 65 64 66 65 66 66 65
38 41 40 45 49 54 53 58 57 56 58 57 58 61 64 66 69 67 65 66 68 69 71 72 72 70 70 71 73 74 74 73
38 41 41 41 46 51 54 59 59 63 63 63 65 66 66 67 66 65 68 71 74 77 78 79 79 77 77 78 80 81 82 84
41 46 46 49 51 53 57 61 64 65 67 70 69 68 69 68 70 72 73 75 78 80 84 86 86 86 85 85 85 86 89 92
45 47 47 50 53 57 61 65 67 69 71 71 72 74 76 76 77 79 82 87 89 90 91 94 95 95 97 96 94 98 100 102
49 49 49 52 57 61 64 67 72 73 73 76 76 77 81 83 85 88 91 92 93 94 97 100 104 106 105 108 109 107 107 113
49 51 53 55 60 64 67 68 69 72 75 78 81 84 88 90 92 95 98 100 103 105 107 111 113 114 117 117 121 121 116 109
49 51 54 59 62 63 65 67 69 74 78 83 89 94 97 99 102 105 110 113 117 119 122 125 128 126 124 121 119 120 116 110
52 53 53 55 58 62 66 69 73 79 83 87 92 97 101 103 107 112 117 121 125 128 130 131 129 125 125 123 119 116 113 107
54 55 57 61 62 64 69 74 79 83 87 93 98 102 107 110 114 120 125 130 131 130 128 125 125 124 123 120 117 114 110 104
54 58 60 62 66 71 76 81 86 90 95 101 106 109 113 117 123 127 128 125 120 118 119 120 121 121 118 115 109 103 98 94

GFSFLT2_250_spd_033.txt.gz
Wind_Speed
94 92 90 92 96 96 92 96 101 96 96 86 70 61 55 47 45 42 42 44 45 47 50 50 51 51 50 46 40 38 36 36
87 88 93 96 96 92 95 92 91 83 86 62 56 52 50 47 45 44 46 50 50 51 52 51 50 49 44 42 40 39 38 37
86 88 87 90 94 93 92 86 83 76 66 56 51 51 52 50 46 46 51 51 52 50 49 46 47 45 42 39 37 37 38 38
85 87 92 95 91 90 88 85 74 61 55 51 52 51 52 44 46 50 46 45 44 44 44 47 45 41 40 40 40 40 41 42
88 93 95 94 97 90 82 75 63 55 54 55 54 47 47 50 53 50 49 47 45 45 46 45 45 46 45 45 46 45 47 49
91 90 87 91 85 82 67 57 57 53 53 55 50 50 50 52 49 47 43 47 47 47 49 50 49 47 48 50 51 52 51 52
86 91 92 87 80 67 61 54 53 54 56 52 52 48 52 53 52 51 53 52 53 51 53 53 53 52 54 55 55 56 56 56
86 84 82 72 59 55 54 53 56 57 56 59 59 53 57 60 58 54 55 56 58 55 56 56 56 57 60 61 61 61 61 62
77 74 61 55 51 49 53 57 51 59 60 58 60 56 60 65 65 59 59 60 60 59 59 58 58 58 61 65 65 65 66 68
60 58 49 48 52 54 53 58 60 63 65 60 59 63 67 65 69 68 67 65 62 62 63 63 64 63 65 68 71 72 72 72
41 44 38 45 59 59 59 63 64 62 61 61 61 65 68 70 73 73 73 70 71 72 73 72 71 72 72 73 76 78 79 79
37 42 42 55 59 63 66 61 67 66 64 66 67 68 71 73 74 76 74 74 75 75 75 77 77 77 79 80 83 85 87 89
38 43 54 54 62 68 69 70 68 66 67 68 70 72 73 76 76 75 75 76 78 80 81 82 85 86 87 88 88 90 91 94
51 52 57 59 62 64 65 65 64 66 68 70 72 74 75 76 78 77 79 82 85 87 89 90 93 94 95 95 93 96 99 104
50 52 55 57 59 63 65 66 66 67 71 73 75 77 78 79 81 84 86 89 93 95 99 101 101 101 102 104 105 105 107 112
51 52 53 57 60 61 63 65 66 68 71 74 77 79 82 84 88 92 97 101 104 108 108 109 111 112 115 116 116 115 114 112
50 52 54 56 60 63 64 67 70 73 77 79 82 85 89 93 97 101 105 109 112 115 117 119 121 124 124 124 123 121 119 116
51 54 57 59 60 62 67 71 73 76 79 82 85 90 95 99 102 107 111 114 118 120 123 123 124 124 122 122 122 122 122 121
52 55 58 61 64 67 70 73 76 79 82 86 90 95 101 106 110 114 118 120 124 126 125 126 123 123 125 124 121 119 113 106
56 58 61 64 67 71 73 76 79 83 86 91 97 102 107 111 115 119 121 124 124 121 120 119 120 123 124 119 111 104 100 95

GFSFLT2_250_spd_036.txt.gz
Wind_Speed
81 81 83 85 88 90 92 88 89 91 90 99 102 96 98 86 76 68 64 56 49 43 51 51 49 47 44 43 43 40 39 37
82 84 88 86 86 87 87 87 88 93 96 98 93 89 79 69 68 62 58 50 42 47 50 46 43 42 40 41 41 37 37 36
81 80 87 90 84 84 86 89 96 95 93 92 87 74 69 69 60 59 52 46 48 50 50 46 44 44 42 40 40 39 39 37
81 80 85 81 83 84 89 90 90 89 90 78 70 66 63 61 58 59 55 50 47 46 46 45 46 46 47 45 44 43 41 40
87 95 87 82 84 84 94 90 90 79 68 68 64 64 65 60 56 52 50 51 49 49 47 52 49 48 47 48 46 45 46 47
84 79 84 86 90 88 85 77 70 65 63 64 62 66 64 62 61 57 59 56 55 55 55 54 54 55 53 52 49 48 49 51
79 80 82 83 86 79 78 65 62 59 61 60 63 63 65 63 63 63 59 60 58 62 63 62 62 58 53 54 54 52 52 53
80 80 81 85 84 76 65 63 60 63 59 59 58 60 63 66 69 69 66 59 60 68 69 69 67 66 62 60 60 60 59 60
85 82 76 67 54 53 57 58 61 60 58 59 61 64 67 68 68 67 65 65 68 72 73 71 72 71 67 67 68 67 65 65
76 65 59 42 45 48 52 59 64 60 61 64 65 70 68 68 73 73 70 69 69 71 73 74 74 71 70 70 69 70 71 73
53 43 26 28 37 39 49 56 58 62 67 69 72 77 77 79 73 72 72 72 73 76 77 78 76 74 72 73 74 77 78 79
45 36 17 20 46 56 58 67 73 78 77 78 80 79 76 74 73 73 74 76 78 80 80 79 77 76 78 80 82 84 87 88
35 29 40 54 62 69 74 78 80 78 79 80 79 78 76 74 75 76 79 80 81 81 81 82 83 84 85 85 88 91 94 97
36 41 46 55 63 73 76 74 79 78 78 77 77 77 76 77 79 80 81 83 84 85 86 88 90 91 93 95 95 98 100 102
52 54 55 57 63 68 71 73 74 75 76 76 77 78 79 80 81 82 84 85 88 89 91 94 96 99 101 103 105 103 102 105
55 57 58 61 66 68 69 70 71 72 74 77 79 81 82 82 83 85 88 92 95 98 99 104 108 112 115 117 117 116 116 113
45 46 48 55 60 62 66 69 71 73 76 77 77 80 81 82 88 93 96 99 102 106 111 116 118 121 122 120 121 122 124 124
47 50 54 58 61 64 67 69 72 74 77 79 80 81 85 90 94 97 101 105 110 115 120 122 125 125 123 124 124 123 121 121
51 52 55 57 60 63 66 69 72 74 76 79 82 86 90 95 99 103 107 112 118 122 123 127 125 122 121 123 121 119 118 113
53 56 58 59 61 64 67 70 73 76 79 82 85 89 94 100 106 110 116 121 123 125 126 121 119 119 119 118 116 114 110 104

GFSFLT2_250_spd_042.txt.gz
Wind_Speed
72 73 78 74 74 79 83 85 83 86 89 93 93 86 84 81 81 76 74 75 69 67 60 59 57 54 51 41 37 39 38 38
74 73 80 81 74 77 82 84 88 88 89 84 80 79 81 78 77 73 72 72 71 62 58 55 52 46 46 45 46 45 44 40
72 76 76 78 78 76 76 84 84 80 77 80 83 77 74 75 70 66 69 69 68 58 56 49 48 48 48 49 47 47 49 47
78 79 81 75 77 85 88 77 84 77 75 75 78 78 77 77 65 69 69 68 61 56 52 52 51 52 53 54 50 48 48 50
65 65 72 81 72 70 72 72 72 74 81 81 78 78 75 77 73 69 65 62 56 53 53 55 56 58 60 60 60 57 52 49
59 61 64 65 60 67 70 72 77 80 80 72 70 74 68 68 71 61 63 62 54 56 58 60 62 66 66 68 65 60 56 55
66 63 60 68 69 72 77 79 76 78 71 70 69 70 66 69 69 66 65 64 65 63 64 68 71 77 77 75 69 64 62 60
63 67 68 68 68 72 74 75 77 69 62 65 62 68 68 69 73 74 73 73 69 68 72 79 80 83 82 78 74 69 66 66
61 63 67 68 71 68 74 66 59 61 58 60 65 70 69 70 73 74 76 74 69 74 83 87 91 90 91 88 81 73 70 68
62 59 62 64 70 69 57 55 53 51 53 61 61 59 64 70 65 70 64 71 77 87 91 98 98 100 93 86 81 78 75 75
60 62 65 62 54 49 41 44 49 54 60 61 68 63 66 66 72 77 81 86 93 98 100 103 100 92 89 86 85 83 82 82
56 54 53 52 39 47 38 50 58 59 62 68 68 68 75 81 86 91 93 95 99 100 102 102 93 90 90 88 88 87 88 87
51 49 44 43 47 50 52 53 60 60 68 77 80 82 83 89 96 94 95 102 98 98 96 93 93 91 91 89 89 89 87 86
38 37 37 41 44 46 52 56 55 66 77 76 81 85 88 92 96 96 94 89 88 88 87 89 90 89 87 87 87 89 91 89
39 38 39 42 44 46 50 52 55 60 63 68 70 72 77 79 81 81 83 85 87 89 88 85 84 87 90 93 96 101 104 108
35 38 42 45 48 51 54 56 58 62 65 69 72 75 77 79 81 82 84 84 82 83 85 90 93 97 102 104 107 111 116 117
38 42 46 49 52 56 58 61 64 66 68 70 72 73 75 75 75 73 74 80 84 87 93 95 99 102 107 109 111 111 116 119
42 45 49 52 55 58 60 62 64 66 66 66 65 65 64 65 71 78 81 85 90 93 97 101 102 103 106 108 109 110 112 116
45 48 51 55 57 59 61 63 64 63 62 61 61 63 68 72 78 85 88 95 99 99 99 102 105 106 108 110 109 112 115 116
48 52 54 56 58 59 59 59 59 59 59 62 64 68 76 80 87 93 96 97 95 100 103 103 104 107 108 110 110 111 109 107

GFSFLT2_250_spd_045.txt.gz
Wind_Speed
60 64 66 60 53 63 64 74 79 64 74 79 86 89 87 86 85 80 78 71 71 74 70 71 68 64 59 56 44 40 38 39
63 59 67 64 60 62 65 71 75 79 73 81 82 83 77 75 73 70 75 74 73 76 73 67 66 60 53 45 43 44 44 44
56 63 64 68 71 66 72 74 68 72 81 87 74 75 76 73 76 78 77 76 76 71 65 64 59 57 47 45 43 43 45 49
72 78 80 75 67 67 63 72 73 69 69 73 76 75 81 83 79 81 76 77 68 65 63 59 54 52 49 53 48 47 50 53
69 68 76 71 68 72 81 68 65 68 68 71 77 82 75 76 78 79 78 65 65 64 60 61 58 56 56 56 54 53 59 60
72 65 60 59 64 59 64 67 64 68 74 78 74 68 63 74 71 74 72 72 69 68 65 62 62 56 56 60 56 68 74 75
75 78 77 75 75 71 72 70 75 77 74 60 60 71 75 78 75 76 74 71 69 67 67 66 60 56 60 66 74 81 86 87
76 77 79 75 74 69 72 73 74 74 75 71 73 72 70 70 69 71 72 74 75 75 71 64 64 70 69 81 84 90 90 92
71 68 69 72 70 70 66 68 70 72 68 70 65 69 67 67 71 72 72 71 77 75 73 66 78 80 88 87 92 96 98 98
57 59 58 62 65 60 63 68 57 53 60 66 63 62 60 64 70 74 77 74 69 78 80 87 88 92 95 97 100 100 94 88
56 56 58 62 68 69 72 65 46 54 62 56 55 66 70 69 71 76 83 82 82 86 90 95 97 101 104 104 98 93 90 86
60 63 65 67 63 64 62 56 55 58 59 63 63 72 71 74 78 81 85 89 95 96 100 102 102 99 94 92 90 89 88 83
58 60 61 62 62 59 54 55 54 59 61 67 71 77 77 82 85 88 94 98 99 102 89 87 89 88 89 88 86 84 84 82
55 54 52 49 46 46 47 49 53 57 61 60 67 73 76 76 79 81 82 85 85 85 87 86 85 81 81 83 84 88 94 98
40 39 37 37 39 41 44 48 52 57 60 64 68 71 74 77 80 83 84 83 81 77 74 75 79 88 91 93 97 98 100 106
29 32 36 39 43 47 51 55 59 63 67 70 71 76 77 78 78 77 73 70 68 74 78 83 89 93 98 102 106 110 113 111
32 36 40 43 46 50 55 59 62 64 66 68 69 70 70 70 68 66 68 71 76 80 85 92 98 101 105 107 109 110 110 109
36 39 42 45 48 51 53 55 57 59 59 60 62 62 62 62 66 69 74 77 82 86 93 97 100 104 105 104 104 107 109 112
38 41 43 45 49 51 53 55 56 57 58 59 61 66 68 70 73 74 76 82 87 93 96 99 102 102 104 108 110 112 113 112
36 38 42 47 50 53 55 57 58 60 59 61 64 65 66 67 70 76 84 88 95 98 101 102 103 105 107 108 111 111 109 107

GFSFLT2_250_spd_048.txt.gz
Wind_Speed
59 56 60 61 62 57 55 56 60 70 65 64 66 70 76 71 76 77 85 81 73 64 68 73 72 72 73 69 67 61 54 44
48 43 48 46 51 56 53 60 63 61 64 64 68 64 67 71 77 83 75 75 71 73 77 77 73 77 73 69 61 55 47 41
58 55 44 44 47 51 56 59 60 64 67 73 70 71 78 81 79 74 74 81 82 83 81 79 77 75 70 63 56 55 47 49
57 57 51 52 61 66 69 68 75 78 81 81 82 84 83 81 83 83 86 84 85 83 78 76 74 69 64 59 56 51 48 45
59 64 67 70 71 74 78 76 74 79 87 83 74 75 79 80 84 86 85 87 78 77 76 76 73 65 60 59 58 51 39 43
72 75 76 77 79 81 78 75 73 68 69 73 79 80 84 80 76 81 78 81 82 77 81 71 67 67 63 57 55 54 57 55
78 78 78 80 80 72 69 74 75 79 78 75 79 78 80 80 84 81 87 86 83 81 73 72 68 65 68 64 66 63 75 73
77 81 81 78 82 82 80 83 78 80 77 78 81 87 82 83 87 88 87 92 79 73 75 75 72 73 76 66 71 82 81 84
78 83 82 85 84 83 84 85 85 83 87 83 80 82 87 88 91 88 85 79 75 73 73 77 80 72 77 86 85 90 91 96
56 61 72 80 80 77 76 78 75 75 80 81 82 85 86 85 81 78 75 75 74 77 81 78 83 83 87 89 94 98 96 94
49 51 55 60 65 68 69 66 71 75 77 78 78 78 77 73 72 73 75 79 83 82 86 87 89 87 85 86 86 87 85 81
48 51 55 58 57 60 64 69 70 71 71 69 67 67 68 67 70 76 80 80 80 85 89 87 86 85 85 84 80 74 73 76
56 61 59 58 61 68 69 63 61 62 61 60 61 64 67 70 73 77 82 81 80 80 80 80 80 78 74 70 68 73 78 84
53 55 57 61 59 56 56 52 49 49 52 55 60 63 67 70 74 75 76 77 77 76 76 74 71 70 71 74 76 82 89 93
51 51 51 49 46 42 42 45 48 50 55 58 61 64 66 65 65 65 65 66 68 69 69 68 70 73 77 80 84 88 92 99
43 39 35 36 38 40 43 45 48 51 53 54 59 62 63 64 65 65 67 69 71 73 74 75 75 75 81 88 94 98 101 104
30 32 35 36 39 41 42 43 44 46 49 52 55 56 58 61 65 68 69 71 73 74 73 74 75 82 89 95 101 107 113 115
30 31 34 36 37 37 39 43 45 50 57 61 65 67 67 65 63 66 70 71 72 73 75 78 83 91 98 102 107 109 111 113
29 30 33 36 38 41 44 48 53 56 61 66 71 73 76 73 71 71 72 74 75 76 79 84 91 97 102 106 110 112 111 111
30 32 37 42 42 47 52 56 59 65 68 74 77 79 81 79 77 77 77 77 79 82 88 94 97 101 107 111 112 112 111 110

GFSFLT2_250_spd_051.txt.gz
Wind_Speed
52 53 58 57 54 50 50 57 57 56 55 61 58 61 62 63 64 69 78 83 75 83 82 82 75 72 83 86 89 76 74 70
55 54 48 49 46 53 51 54 57 53 57 56 59 59 60 68 77 74 77 83 88 78 80 80 79 83 89 87 80 79 76 71
58 56 52 52 52 44 53 49 44 48 52 57 61 60 71 77 80 81 85 85 83 82 81 85 87 89 84 81 80 77 71 60
62 62 55 56 57 56 54 51 52 56 57 56 67 73 82 84 84 87 88 87 85 85 88 87 83 83 84 82 81 74 67 62
57 56 55 55 54 56 59 61 64 64 72 75 77 79 83 85 88 83 82 87 88 92 78 82 84 84 81 76 69 65 61 56
52 55 57 58 59 66 66 66 71 71 73 74 79 83 77 82 83 83 90 83 85 86 87 88 83 82 78 71 67 64 65 62
48 57 58 63 67 65 71 74 74 75 76 77 79 83 86 91 90 88 86 86 83 85 86 88 86 85 77 72 69 72 74 73
63 65 65 66 67 72 77 78 82 85 85 89 88 91 93 92 95 94 92 89 91 89 91 84 80 76 75 75 77 79 80 82
64 68 73 76 77 79 80 84 86 88 91 95 89 89 88 92 90 88 88 86 83 83 81 79 74 76 79 82 81 86 87 85
66 75 80 85 87 83 83 85 82 79 76 80 83 82 83 83 86 84 82 80 76 76 75 75 78 80 82 84 83 81 81 80
53 49 62 61 58 60 59 62 66 67 71 70 70 74 78 79 75 72 69 69 72 76 79 81 84 83 81 79 78 77 76 75
47 45 51 59 61 61 63 64 66 69 70 74 74 74 70 69 66 67 69 71 72 73 74 73 71 69 69 68 68 67 65 64
47 49 50 52 58 63 67 67 67 68 71 67 64 61 61 62 63 63 63 64 64 67 69 70 70 71 71 72 72 72 73 73
52 58 64 64 62 63 63 62 60 59 54 56 55 55 53 50 51 55 61 63 65 68 70 73 75 76 75 74 74 75 75 77
54 54 53 54 56 57 54 54 51 50 49 49 45 43 45 50 55 60 63 68 74 74 73 74 73 74 76 77 75 75 74 80
48 48 51 50 50 48 44 45 44 43 42 41 44 47 51 56 61 65 70 74 78 79 78 76 75 74 77 78 77 75 75 77
41 43 45 41 41 42 43 42 39 40 42 45 53 55 59 63 67 71 76 80 83 85 81 79 78 76 75 77 81 86 93 97
38 38 40 41 42 42 41 40 42 44 48 53 55 58 62 66 70 72 77 80 84 86 81 79 78 78 82 88 93 97 102 106
34 36 40 40 39 42 44 45 48 52 56 61 64 68 72 76 76 81 84 86 91 87 80 81 84 87 92 97 101 104 107 109
36 35 38 42 45 46 49 54 56 58 60 63 69 73 77 79 83 87 89 93 93 86 85 88 92 96 101 104 104 105 106 106

GFSFLT2_250_spd_054.txt.gz
Wind_Speed
35 39 43 55 55 53 43 43 47 52 51 55 56 61 63 61 61 61 63 65 64 61 72 78 83 85 80 80 77 82 79 79
34 41 54 56 56 47 45 40 45 58 59 59 56 56 52 56 58 62 63 59 60 76 79 80 80 80 83 83 87 80 80 79
40 51 61 58 53 57 49 50 53 55 60 55 59 53 59 59 54 55 61 76 81 81 87 81 81 89 90 91 89 90 84 79
67 56 55 56 58 49 50 50 54 54 55 62 58 49 52 55 63 73 73 75 80 85 92 88 89 89 94 89 85 83 83 81
71 63 58 59 56 53 51 53 58 57 61 56 62 62 66 73 75 84 85 88 89 88 91 90 89 86 83 79 80 84 83 79
58 62 65 55 53 57 54 51 56 62 60 69 71 74 78 74 85 85 87 92 92 87 83 81 82 86 87 84 81 83 82 82
36 50 47 54 54 55 58 62 64 66 70 71 74 76 81 83 89 90 93 88 86 83 85 85 85 85 84 85 79 79 77 77
40 40 43 49 49 54 56 60 67 69 76 77 74 80 84 87 87 83 81 82 82 80 82 80 81 82 79 79 78 79 81 82
45 50 55 53 58 61 67 72 72 73 74 80 84 84 80 76 75 79 79 80 82 82 81 82 80 80 79 80 82 83 83 81
50 52 47 52 59 64 68 66 62 66 77 82 77 81 79 76 77 80 83 85 81 75 75 72 72 71 72 73 75 77 78 79
48 55 59 53 50 50 57 59 58 64 69 71 71 76 76 79 82 86 82 74 73 69 69 68 64 64 67 72 75 76 76 75
43 48 55 59 57 52 60 61 60 63 65 70 72 77 79 79 75 72 68 65 67 63 61 62 63 68 71 73 77 78 76 77
57 45 49 49 51 56 54 58 62 64 70 74 74 74 75 70 65 64 63 63 57 60 63 67 70 73 76 79 82 81 79 80
36 40 46 49 50 55 61 66 69 71 72 72 67 65 62 60 60 60 56 58 61 64 67 72 75 79 81 80 84 83 78 79
43 47 53 54 51 53 54 57 59 62 64 60 58 56 58 56 56 57 62 65 67 70 73 74 79 84 85 86 86 77 74 78
47 50 53 53 54 54 57 59 58 56 55 54 53 55 55 57 60 63 68 72 74 75 77 81 85 88 93 94 88 79 75 75
44 44 45 48 48 49 49 49 50 52 53 54 53 55 58 62 66 69 73 75 77 79 82 88 90 94 95 91 86 83 86 88
42 40 38 44 44 44 46 50 51 52 53 56 58 61 64 66 68 73 74 77 78 81 86 89 93 97 94 88 85 88 93 98
35 36 37 40 43 47 50 51 51 53 56 59 61 63 66 68 71 75 77 78 81 86 90 94 96 93 89 89 92 97 103 107
34 38 41 44 45 48 51 52 54 58 61 62 64 69 72 73 76 76 79 84 87 90 95 97 94 92 92 96 100 106 112 112

GFSFLT2_250_spd_057.txt.gz
Wind_Speed
39 34 35 41 44 42 44 46 51 49 51 48 50 53 56 58 56 60 61 63 58 56 52 54 57 62 71 71 81 85 86 92
36 35 38 42 41 44 45 52 56 53 42 48 54 54 54 58 62 63 48 48 54 51 56 72 74 77 77 89 88 92 94 94
39 43 45 44 49 51 52 51 57 55 49 51 58 56 58 50 54 50 50 48 58 67 74 80 79 84 89 93 96 97 90 84
49 55 55 49 46 49 50 47 53 48 58 56 61 55 57 58 52 53 55 67 71 73 78 86 87 91 96 99 92 87 83 81
51 47 59 52 54 52 51 43 45 55 50 55 56 55 55 55 58 67 67 71 82 82 86 88 93 94 91 83 80 82 83 82
68 59 58 65 59 60 47 58 60 45 55 59 61 64 63 68 71 74 78 77 77 83 88 87 83 82 83 84 87 82 81 77
57 64 63 62 67 59 57 55 52 52 58 57 63 72 76 77 76 81 85 85 86 87 91 86 85 86 81 78 78 76 74 72
28 31 50 52 55 56 57 60 61 64 58 61 66 68 71 77 77 78 83 86 87 87 83 84 83 80 79 73 69 70 70 73
29 31 35 42 43 47 47 60 59 66 61 63 68 76 75 71 72 73 81 79 79 80 82 80 78 72 70 70 70 67 66 69
34 35 43 51 47 50 53 56 52 61 58 61 67 68 67 67 73 81 77 79 78 80 78 76 71 69 69 67 68 70 71 74
41 45 54 48 50 46 64 62 58 60 66 60 62 68 72 77 79 75 75 75 76 75 72 68 68 67 68 70 74 76 78 79
46 46 53 57 56 53 56 61 71 69 67 68 72 75 75 72 72 72 74 75 73 70 67 68 67 67 71 75 78 81 82 83
46 48 52 53 53 54 56 54 59 61 62 59 63 66 69 68 69 68 68 68 67 67 67 68 70 74 78 81 81 84 85 88
37 39 42 50 52 52 54 52 53 56 60 61 64 64 63 64 65 65 65 66 68 68 71 74 77 79 81 82 83 85 88 92
40 40 41 43 47 49 53 57 59 61 61 59 59 59 60 63 64 65 68 68 68 71 74 77 80 82 82 82 83 85 90 96
41 42 43 45 51 55 56 58 58 54 54 55 55 58 62 65 67 70 70 71 74 76 75 78 78 78 82 86 90 93 97 96
41 44 45 47 49 51 51 50 49 49 50 52 56 62 66 69 70 70 70 72 76 80 79 79 80 83 86 89 91 99 100 96
43 44 44 42 39 41 43 46 47 49 53 57 61 66 69 72 73 73 72 75 77 79 79 81 86 90 92 94 97 103 99 94
38 36 33 33 34 39 45 48 50 53 56 59 62 64 64 66 69 73 73 72 73 76 80 86 88 92 95 98 102 104 96 97
26 30 31 34 38 46 50 52 55 56 60 61 61 64 66 68 71 73 73 75 77 83 88 89 92 95 98 103 104 100 102 108

GFSFLT2_250_spd_060.txt.gz
Wind_Speed
42 47 45 47 47 53 50 39 45 43 45 44 46 48 54 58 58 56 57 59 60 54 50 54 57 56 59 61 64 67 76 80
43 43 42 48 44 42 44 42 42 43 45 50 48 48 44 47 52 53 54 53 59 60 59 57 56 58 66 71 72 79 83 81
48 44 41 46 44 46 50 51 40 46 48 45 44 51 48 50 52 46 55 63 64 63 67 64 65 66 69 71 74 78 82 85
49 54 44 42 47 47 56 49 44 46 50 47 50 48 52 53 57 60 61 62 64 63 67 72 77 79 79 85 84 85 89 86
45 42 45 43 51 48 48 47 44 52 54 45 51 51 51 51 54 63 63 69 74 70 76 79 83 82 84 87 92 94 90 87
45 50 50 57 55 56 56 53 54 48 45 52 52 47 53 58 63 60 67 74 71 75 78 78 83 79 81 85 87 84 86 82
63 56 55 59 58 56 52 55 63 57 57 54 55 59 63 64 64 63 66 71 75 78 78 76 79 83 85 85 85 80 78 76
51 62 61 55 53 64 57 54 54 66 62 58 60 68 64 65 71 73 72 74 75 77 76 80 87 88 82 79 76 74 71 68
32 29 46 64 59 61 63 56 53 55 54 48 52 61 61 58 65 65 62 68 74 74 78 82 83 77 76 75 71 70 69 70
34 32 29 36 42 46 47 55 52 56 58 60 59 63 68 66 66 72 70 78 82 81 79 78 76 73 71 71 70 72 71 73
33 31 34 37 41 42 44 50 51 48 49 61 69 75 74 73 75 77 83 79 79 73 73 71 71 72 71 72 74 73 76 79
32 33 35 37 39 45 49 52 56 57 58 56 59 67 69 73 74 77 77 76 69 68 70 69 71 71 73 72 74 78 79 81
35 38 44 43 45 49 52 55 62 58 63 61 64 65 66 65 70 70 69 67 65 66 70 71 73 76 75 76 77 80 83 84
32 36 40 48 46 49 44 47 57 63 56 63 68 66 65 65 65 68 66 65 67 70 73 75 77 77 77 79 80 84 85 84
38 36 36 38 38 43 47 50 48 58 64 62 60 64 65 67 65 62 62 66 71 74 77 80 81 81 80 82 84 84 82 88
38 38 38 40 44 47 49 52 50 53 57 60 60 62 60 57 58 61 65 69 72 72 69 69 73 76 78 81 81 86 87 88
42 44 49 51 51 48 52 54 54 53 54 56 54 54 55 59 61 64 68 71 72 72 72 75 77 76 77 81 86 89 93 94
46 46 46 46 47 48 46 44 48 50 49 49 53 58 60 63 66 69 72 73 74 74 74 72 75 77 81 84 87 91 96 100
38 38 40 42 37 34 36 40 46 49 49 54 60 62 64 67 70 70 73 74 75 75 75 75 79 82 85 90 94 99 101 106
38 41 38 34 31 33 39 42 51 53 57 62 66 64 66 68 70 72 69 69 72 77 81 83 84 86 90 95 99 102 108 106

GFSFLT2_250_spd_063.txt.gz
Wind_Speed
35 34 37 42 45 44 42 45 46 43 44 44 44 42 43 47 48 52 50 49 48 50 53 51 53 57 62 61 61 60 65 66
31 20 34 40 44 43 42 45 50 52 47 40 38 45 46 43 49 48 52 50 51 53 55 59 65 67 60 60 63 67 68 73
49 53 54 48 39 52 51 47 46 46 49 52 42 44 45 49 53 51 46 48 46 52 58 61 61 62 65 68 71 75 78 78
44 49 48 47 49 31 41 49 46 46 48 54 52 52 48 46 48 52 53 50 55 50 53 59 58 67 69 70 75 76 77 78
54 44 43 42 31 40 45 41 49 52 51 59 51 56 46 44 44 51 41 45 61 63 61 60 67 69 73 76 77 77 80 79
52 47 44 49 41 49 48 47 49 52 49 49 51 56 56 62 57 61 62 65 61 62 67 70 72 75 75 74 76 81 84 82
47 46 57 58 52 50 50 47 52 51 49 54 58 60 62 60 58 63 59 63 70 75 75 73 76 80 79 79 82 83 78 76
49 48 51 55 50 49 55 54 53 54 51 52 59 61 64 62 56 56 58 63 67 68 76 78 73 75 81 85 85 80 72 70
36 48 50 49 46 50 51 51 55 60 61 64 64 58 55 54 59 65 66 68 70 69 72 75 81 83 83 78 71 69 69 69
39 51 50 52 47 49 52 58 59 59 63 57 61 63 64 65 67 70 73 75 73 82 84 84 77 77 74 72 69 67 68 71
34 38 39 44 58 57 47 48 49 56 56 63 63 64 65 62 61 61 62 68 68 70 68 71 76 74 70 68 69 71 73 77
23 26 30 33 35 46 48 39 43 47 49 52 55 57 62 65 68 72 72 76 76 77 78 78 72 69 69 71 74 76 76 76
22 25 28 30 32 35 37 40 40 44 52 54 60 63 63 68 68 69 74 72 65 69 68 72 65 67 69 72 74 75 76 78
28 29 30 33 34 41 40 48 50 47 44 45 46 51 54 61 66 69 67 67 67 67 66 66 67 69 72 73 76 77 78 79
32 31 31 36 38 42 43 43 46 46 47 49 52 56 59 60 58 60 63 64 65 64 65 68 70 73 75 78 80 80 79 80
32 37 38 39 41 45 45 45 50 54 54 55 56 55 58 57 59 59 59 61 64 67 70 73 74 76 78 79 78 80 81 82
37 42 44 45 45 48 48 50 49 50 52 54 53 52 53 54 53 59 63 66 69 71 74 75 78 79 76 75 80 85 89 89
42 43 43 45 47 47 45 44 42 45 48 46 45 48 52 55 60 66 70 72 73 73 75 77 75 73 76 82 88 91 90 91
34 35 38 39 40 41 43 43 39 39 42 43 47 52 56 60 66 70 71 72 75 76 76 74 73 76 83 89 92 91 94 97
34 33 35 39 40 42 42 40 37 39 43 47 55 58 60 66 69 71 75 74 77 76 74 73 80 84 89 91 92 96 100 102

GFSFLT2_250_spd_066.txt.gz
Wind_Speed
29 33 32 32 36 42 45 48 49 51 49 50 53 51 47 46 49 50 45 41 48 53 55 56 53 52 55 55 60 63 65 67
35 27 30 26 38 37 36 35 39 42 42 41 41 39 42 42 40 43 44 45 49 55 56 55 56 53 53 61 61 64 65 66
43 38 33 26 45 41 31 44 48 47 46 44 43 47 44 47 42 45 45 48 53 52 53 48 54 52 60 64 61 57 70 69
45 42 41 41 41 42 40 47 53 51 55 44 43 47 49 53 56 56 50 48 52 53 55 57 56 60 66 61 63 68 72 71
46 36 51 48 48 42 43 44 49 39 46 52 51 52 55 54 55 56 58 59 54 59 60 62 62 68 57 64 72 72 77 78
51 53 51 59 52 55 52 48 40 37 54 51 52 54 57 57 59 61 61 61 59 60 61 65 64 53 61 69 72 73 77 75
45 48 55 63 59 46 47 53 55 52 54 52 59 52 55 58 56 58 58 62 64 57 62 56 61 68 73 75 79 82 85 81
37 50 47 51 51 54 58 54 52 57 56 56 57 58 51 55 57 58 59 59 63 61 63 71 72 76 80 79 70 76 72 81
47 48 53 50 56 55 59 58 58 51 55 59 60 60 61 60 60 65 69 71 73 76 77 77 79 78 74 75 81 83 87 77
39 50 49 50 57 59 56 58 59 59 53 48 53 55 59 61 58 53 59 67 72 75 69 66 72 75 79 84 83 76 72 71
38 47 46 46 50 57 57 56 51 55 56 61 64 63 64 70 67 68 69 68 64 65 71 73 74 75 79 75 70 70 68 68
33 37 40 38 39 46 49 51 58 61 59 50 47 53 54 57 56 57 61 65 69 69 67 69 71 69 66 66 68 69 69 71
29 34 32 39 33 41 44 37 42 50 47 50 49 47 49 53 56 54 54 54 56 59 61 61 60 62 64 66 70 70 73 75
26 24 27 25 27 29 32 34 37 41 45 45 50 50 54 51 55 56 56 59 63 62 62 62 62 66 68 70 70 72 77 79
32 33 32 30 31 32 34 37 39 43 47 48 49 53 54 57 60 60 61 64 62 63 61 61 68 70 72 75 76 77 78 79
26 30 31 33 36 36 38 41 45 48 50 52 54 57 58 59 58 60 62 61 60 58 59 65 72 74 76 78 80 82 84 81
38 36 36 38 42 42 44 45 49 50 51 53 54 55 55 57 58 56 57 56 58 62 66 72 75 78 80 82 83 83 80 82
39 40 42 42 44 46 46 44 43 46 48 49 52 55 54 52 50 53 57 60 64 67 71 74 78 81 83 83 81 80 83 86
42 41 41 38 39 38 38 42 42 45 47 48 49 50 49 48 50 58 64 67 69 72 73 75 81 83 82 81 82 85 88 92
38 37 36 38 38 41 41 42 44 49 49 45 47 45 47 51 58 63 68 72 74 77 77 80 84 83 81 83 85 88 92 96

GFSFLT2_250_spd_069.txt.gz
Wind_Speed
32 37 24 25 34 40 38 44 47 46 50 52 56 59 62 66 62 53 53 54 55 54 54 55 56 56 53 56 60 59 59 62
35 44 30 24 18 32 34 37 42 49 50 47 46 42 48 47 45 45 44 46 46 50 48 49 53 54 61 55 55 57 60 62
46 35 39 32 30 26 28 34 33 36 34 37 35 41 41 40 41 44 45 42 42 42 44 49 55 58 56 57 56 59 61 68
43 34 32 34 34 37 43 46 42 35 39 40 49 47 52 47 41 47 53 54 53 56 56 53 54 52 57 61 62 63 68 65
42 42 42 41 38 47 46 41 45 43 44 43 44 49 49 49 50 50 57 58 58 57 60 64 66 65 65 68 65 69 62 60
49 54 51 42 45 47 47 55 49 47 49 49 49 47 47 51 49 56 62 63 62 62 60 63 67 69 69 68 64 61 68 70
53 54 53 49 48 54 55 58 50 53 53 54 54 44 47 49 53 56 64 66 66 65 63 66 65 67 68 69 72 73 77 86
58 51 46 54 53 59 59 57 58 55 53 52 49 53 54 54 55 57 56 61 60 62 63 67 68 71 75 77 80 83 82 78
43 52 54 55 59 52 56 59 59 61 61 61 61 55 58 54 58 57 61 58 59 61 66 69 74 73 72 77 76 78 77 81
47 52 47 53 55 56 49 57 54 58 62 58 59 61 61 54 60 59 59 64 68 70 68 66 71 74 80 75 74 77 77 76
45 47 53 50 56 56 56 60 58 58 58 63 61 63 65 66 66 64 64 67 70 68 68 70 69 71 71 73 72 73 71 66
49 48 53 49 54 52 55 60 64 64 64 62 61 62 64 65 64 68 60 63 64 61 63 65 65 64 64 68 70 69 66 69
45 49 46 43 43 54 50 46 51 59 64 63 60 61 60 60 56 55 59 58 60 59 60 62 66 68 68 70 68 67 70 70
35 43 43 40 40 36 37 38 38 40 43 49 52 51 55 53 53 54 56 58 63 63 66 69 68 70 70 68 65 64 65 73
29 29 32 35 33 36 36 38 42 41 42 44 46 47 49 52 55 56 60 63 66 68 69 68 68 67 67 66 66 71 74 75
33 35 34 37 39 37 40 39 38 40 44 47 50 52 53 57 58 60 61 63 64 65 67 67 65 60 66 71 74 78 82 82
32 32 31 33 35 36 37 43 44 46 47 50 54 57 60 62 62 59 59 62 63 64 63 61 62 65 71 74 80 83 85 86
37 41 43 42 45 45 45 48 50 53 52 56 58 59 58 56 57 61 62 61 59 60 61 62 67 74 77 79 81 83 85 86
41 44 45 48 48 48 51 54 57 56 53 53 52 53 55 56 58 61 59 58 59 62 66 72 77 80 82 81 85 87 91 92
48 48 47 51 50 54 53 49 46 45 50 51 53 55 58 59 56 55 59 64 66 69 73 76 80 84 81 84 89 91 92 92

GFSFLT2_250_spd_075.txt.gz
Wind_Speed
30 37 33 36 45 36 33 32 40 32 32 30 36 45 50 52 55 54 53 52 55 57 58 62 59 59 60 56 52 54 52 51
43 45 42 34 66 47 42 29 34 27 22 24 28 29 35 44 45 47 47 52 53 53 53 50 48 50 46 44 48 50 55 55
55 58 50 38 39 43 39 39 33 27 21 20 20 23 27 31 33 38 38 36 38 39 42 41 40 39 42 45 51 49 50 52
50 60 60 52 53 45 52 55 39 36 33 30 25 25 26 30 27 30 30 32 34 36 35 40 41 44 44 47 52 52 54 55
46 60 66 56 44 60 57 45 40 40 44 43 34 34 32 31 31 36 36 36 32 38 41 42 42 43 49 49 57 57 60 61
57 62 61 73 56 54 58 51 54 59 49 47 47 42 35 35 33 39 43 42 43 39 43 45 45 50 52 56 57 60 61 70
56 68 67 63 66 57 56 56 55 55 51 49 48 45 39 40 43 46 47 48 49 53 54 56 52 56 58 59 63 65 63 66
56 66 69 71 71 61 59 53 57 53 52 52 49 46 47 44 45 49 49 51 54 56 54 56 57 60 62 64 65 63 68 73
55 62 65 70 71 61 61 59 56 57 56 54 52 48 49 50 51 54 55 58 59 59 59 57 58 55 58 65 69 73 77 76
55 55 58 63 68 66 61 59 58 61 55 57 52 54 53 52 50 49 55 56 58 57 57 58 63 65 67 70 71 71 70 72
55 53 56 56 66 65 69 65 56 56 58 59 55 53 55 55 57 58 56 55 58 63 63 66 69 68 70 70 74 71 68 65
57 57 57 58 59 62 66 66 64 58 55 55 61 57 59 61 58 60 61 63 64 63 69 69 71 72 72 73 70 69 67 68
63 59 62 58 58 57 61 62 66 62 64 60 64 67 59 60 61 58 65 63 64 66 68 74 72 71 69 68 67 68 69 72
53 57 55 52 56 56 59 64 62 61 60 61 58 61 65 70 69 66 64 62 65 67 66 66 66 66 65 66 67 72 75 79
52 55 53 57 58 58 57 58 65 60 54 60 60 60 59 61 62 59 55 55 57 58 61 62 63 68 67 68 73 76 78 78
49 49 48 49 46 56 56 62 60 60 60 58 59 58 52 52 54 56 55 57 60 62 64 66 65 68 72 74 77 79 76 76
43 39 37 44 52 55 57 58 61 60 58 51 56 56 55 58 55 57 61 63 64 65 64 66 70 72 73 76 76 78 78 79
29 37 39 39 44 48 48 46 46 51 56 59 57 57 59 59 60 63 63 67 70 70 71 74 78 76 74 77 81 83 80 76
35 37 38 38 41 45 46 48 52 51 52 56 59 60 63 66 69 72 72 72 73 71 70 71 70 73 76 77 70 80 81 81
39 41 45 47 50 50 51 55 56 54 57 60 62 65 68 72 72 69 69 70 67 66 68 70 72 73 69 76 77 81 86 87

GFSFLT2_250_spd_078.txt.gz
Wind_Speed
29 25 36 29 30 43 35 42 40 43 41 42 42 29 31 34 38 42 46 47 50 53 51 52 49 50 57 57 54 53 50 49
44 44 29 36 42 44 38 43 37 34 34 31 24 23 26 30 31 37 43 43 47 49 48 46 40 40 49 45 40 41 44 46
47 44 55 36 38 39 60 63 44 30 27 33 35 26 23 23 25 26 28 34 38 39 36 39 35 33 36 40 43 44 41 41
53 55 51 45 55 42 49 42 40 40 35 27 26 29 26 25 23 25 30 31 35 37 36 36 33 34 36 38 39 41 44 46
52 52 56 52 41 53 52 54 48 38 32 31 28 29 29 32 29 29 33 38 31 29 30 32 31 36 39 42 43 44 45 48
47 47 63 53 58 67 65 56 52 49 44 33 35 36 42 45 42 39 41 39 35 34 37 38 39 41 48 52 51 55 56 59
52 55 59 64 55 63 60 48 56 51 54 51 49 50 53 51 51 47 43 42 41 41 41 43 45 48 54 56 55 56 59 63
61 59 64 70 65 63 59 49 51 53 48 48 49 54 57 56 60 52 46 48 49 47 47 51 52 55 57 59 60 60 60 57
70 66 60 73 72 71 65 55 57 58 61 57 49 50 55 56 55 49 52 50 54 54 54 55 57 58 60 62 63 64 68 70
68 71 67 69 72 64 71 71 62 67 62 61 56 52 51 49 48 50 51 54 56 57 59 62 59 59 60 59 65 69 72 72
66 72 73 71 74 71 70 69 67 68 70 64 63 61 59 56 55 55 55 55 54 59 62 60 64 64 68 68 68 70 73 74
61 71 77 74 70 74 70 71 69 65 66 71 66 57 63 65 67 66 64 67 71 73 70 69 68 69 70 71 73 77 75 72
61 62 68 75 77 72 69 69 69 69 62 61 66 66 69 65 65 66 69 65 63 65 69 71 74 72 71 70 71 69 71 70
60 62 63 61 63 70 71 69 67 70 67 67 62 67 70 63 68 63 68 70 66 74 71 74 75 70 68 66 67 70 74 76
55 59 64 65 63 62 63 63 61 59 62 69 68 69 70 72 71 70 68 69 72 70 70 69 67 66 66 66 67 73 72 74
58 64 65 61 61 58 62 61 67 67 64 62 66 67 72 71 71 73 74 74 73 68 66 65 66 68 70 70 70 71 77 77
33 39 53 62 60 62 62 66 68 65 67 68 67 65 65 70 72 73 68 70 66 67 67 66 69 73 76 74 77 77 77 78
18 24 31 38 40 44 45 49 50 53 54 55 58 66 66 60 59 63 68 69 71 73 74 75 76 77 78 77 74 75 76 79
26 27 28 27 29 33 35 39 41 44 45 48 50 53 58 63 66 70 74 76 78 81 82 82 80 79 77 74 72 78 81 82
32 34 34 32 37 41 42 43 43 46 51 50 52 56 61 65 72 78 78 79 77 75 70 70 70 68 69 74 79 82 81 83

GFSFLT2_250_spd_081.txt.gz
Wind_Speed
42 35 31 29 29 28 31 27 18 23 20 25 28 30 36 37 38 36 30 28 33 39 42 43 45 45 43 43 44 44 48 47
38 36 42 42 31 34 38 41 27 21 21 27 30 31 43 45 32 26 27 26 28 37 39 41 41 38 41 44 44 40 43 43
42 43 39 38 40 40 44 47 34 32 28 25 25 32 24 29 26 28 31 30 26 27 30 34 35 35 34 36 35 32 37 39
45 45 34 37 37 40 46 50 44 36 29 26 31 31 30 29 26 27 25 24 25 24 26 27 27 28 28 28 31 34 38 40
43 38 35 32 35 34 46 48 48 44 39 40 33 36 24 17 16 19 25 34 32 34 32 30 31 33 32 32 35 37 42 46
41 43 38 34 34 36 44 53 56 48 41 41 40 39 32 36 30 29 30 36 42 37 40 38 39 41 41 42 43 47 50 52
47 46 46 42 39 34 46 49 52 49 47 42 49 44 45 36 38 42 42 43 47 48 49 50 47 49 48 51 52 53 55 57
44 48 50 47 41 41 45 52 45 40 54 55 49 51 43 43 48 46 41 48 46 47 53 53 49 49 52 55 56 58 59 60
48 50 50 49 44 41 47 46 42 40 42 45 47 41 41 45 50 48 48 47 50 50 46 50 51 54 55 56 56 59 64 70
52 56 53 49 54 52 54 50 50 50 44 45 46 51 55 56 59 60 57 55 53 56 51 49 52 56 60 61 69 73 71 68
58 59 60 57 54 54 59 58 55 56 54 49 53 51 50 50 51 49 51 55 56 58 63 63 63 63 68 69 69 69 72 73
60 61 61 57 57 63 61 65 58 62 62 62 57 57 58 64 63 65 66 61 63 66 70 66 63 62 62 71 72 76 77 75
60 63 64 61 59 58 70 64 67 61 61 61 64 69 71 73 77 70 73 74 70 64 64 65 67 72 72 71 71 71 71 71
68 56 61 65 65 63 66 74 74 72 70 72 70 67 68 71 72 70 67 67 68 66 66 69 68 70 67 68 66 68 67 69
77 73 65 63 69 70 72 75 77 76 73 70 67 71 74 71 63 68 67 65 63 67 68 70 67 72 70 70 67 68 70 71
88 80 73 74 65 65 74 80 76 76 73 78 79 73 71 73 73 66 67 70 75 73 70 72 69 67 68 67 68 71 76 77
50 62 70 68 65 66 65 70 72 73 73 74 76 76 77 81 78 72 76 76 74 68 68 67 66 68 70 74 76 76 74 71
33 40 49 53 62 63 64 65 68 72 73 73 72 76 75 68 64 70 72 66 68 70 73 73 72 75 76 75 75 72 65 65
25 31 41 53 54 53 52 57 58 62 57 57 55 55 55 58 58 59 63 66 68 70 75 76 77 72 66 63 59 62 65 69
26 29 32 36 38 39 39 41 44 45 45 45 48 48 49 52 56 60 62 64 56 58 63 68 68 64 55 55 62 66 69 73

GFSFLT2_250_spd_084.txt.gz
Wind_Speed
37 35 42 38 37 35 32 26 21 18 15 16 14 12 12 17 15 17 36 33 25 28 25 22 22 24 29 32 34 35 36 38
40 41 48 46 30 33 33 31 26 19 16 14 12 14 14 13 15 29 38 35 33 30 25 21 22 23 25 27 28 28 29 32
39 39 45 34 38 40 38 34 30 27 24 20 15 15 12 11 17 27 36 35 27 26 17 16 21 20 22 25 27 28 28 29
47 44 43 33 35 36 38 32 33 31 25 16 19 10 12 16 21 15 16 35 17 27 31 29 25 25 27 26 28 31 33 34
48 49 47 35 34 32 32 31 30 32 29 20 25 16 17 21 9 14 25 28 27 34 33 25 28 31 33 36 39 41 42 43
43 43 40 34 38 34 40 33 37 39 36 33 34 31 18 27 27 34 34 32 38 40 35 38 38 39 38 44 46 47 50 50
40 42 40 31 29 29 30 33 42 43 36 48 35 26 31 32 32 33 32 34 29 32 35 35 34 39 39 46 52 51 53 54
40 39 35 28 24 34 32 27 38 45 38 36 32 34 37 39 36 34 30 30 36 33 40 45 49 54 51 52 50 54 50 53
39 35 36 30 28 26 20 30 39 41 46 49 41 41 38 38 44 44 38 38 45 48 46 48 52 53 49 48 55 55 55 57
52 42 38 35 30 28 30 32 38 43 42 45 46 46 42 43 47 38 42 46 44 49 47 50 51 49 53 55 57 59 65 65
54 50 46 40 36 32 36 39 42 38 39 40 40 50 50 47 47 44 48 48 48 49 59 59 65 59 60 64 63 60 61 61
51 49 52 48 42 44 38 42 44 50 50 49 47 49 51 48 53 56 56 57 60 62 62 64 60 53 57 59 56 58 61 63
43 53 54 52 53 43 45 42 46 50 54 52 54 57 58 59 61 61 61 61 61 55 53 51 61 65 63 61 61 67 70 64
50 48 51 51 58 56 54 54 50 54 58 64 62 64 65 64 65 66 63 62 62 60 66 66 60 59 61 61 64 66 71 67
63 57 47 55 55 57 62 58 64 61 59 59 68 73 72 73 72 67 70 70 70 68 65 63 61 59 66 69 67 67 66 69
67 67 68 57 57 61 60 60 65 64 70 70 68 66 72 74 72 74 69 62 58 60 65 68 63 62 65 78 71 71 68 70
46 65 65 67 70 70 66 67 65 64 63 64 62 65 63 63 66 68 60 66 64 69 72 65 71 70 72 74 79 76 76 75
25 35 53 64 69 65 68 71 78 69 70 65 66 67 67 68 67 63 68 69 70 68 74 74 73 75 77 79 77 73 64 60
21 21 26 31 39 53 57 60 67 69 67 66 68 68 68 65 65 66 63 61 65 71 66 69 75 74 74 73 68 59 46 48
26 26 24 25 28 32 39 40 47 55 60 55 57 60 58 56 49 52 56 60 60 66 67 66 70 72 70 68 71 65 58 66

GFSFLT2_250_spd_087.txt.gz
Wind_Speed
37 43 36 30 21 16 15 18 26 32 35 35 32 28 26 23 20 17 17 16 18 24 24 19 7 5 6 8 13 17 19 23
37 43 49 51 35 26 22 20 28 32 36 38 33 29 21 21 19 15 12 12 13 24 18 11 10 10 10 8 7 8 10 13
41 41 52 45 40 39 35 27 32 35 30 24 20 17 17 21 20 18 16 12 7 14 17 15 24 21 17 17 16 17 15 22
41 42 55 45 39 48 42 41 39 35 25 21 20 20 21 21 21 17 9 10 14 18 16 30 28 24 21 28 29 31 27 27
44 46 51 40 45 48 48 49 42 35 28 26 23 24 25 14 21 13 16 16 26 28 27 29 31 29 32 32 32 31 30 36
46 45 46 42 36 47 46 42 40 37 29 30 26 25 20 14 20 18 19 25 29 31 31 36 32 31 38 30 35 37 38 46
44 33 41 38 33 32 32 40 39 32 29 34 33 32 21 22 20 24 27 27 34 27 34 31 36 39 35 38 41 43 43 47
40 37 42 37 38 32 36 36 41 34 34 35 39 35 30 31 31 29 29 31 24 35 39 32 34 38 41 42 47 48 43 45
43 34 39 39 39 32 29 33 33 36 35 40 40 38 25 32 36 35 37 34 34 36 29 34 38 48 44 52 56 54 51 47
41 34 39 38 37 37 25 29 32 37 35 40 36 42 43 41 41 41 40 32 27 33 38 46 50 52 52 55 52 51 46 44
42 38 36 38 34 32 28 22 28 34 37 41 41 46 50 43 42 43 45 45 51 50 51 52 54 55 48 53 51 48 49 50
33 48 43 40 37 34 34 26 27 34 40 43 41 42 46 49 48 53 52 50 53 57 50 54 52 52 54 49 48 49 54 60
40 45 39 44 47 43 36 37 30 30 38 46 50 46 41 42 50 50 53 57 61 61 59 58 57 56 52 51 59 65 67 61
39 39 31 31 34 50 46 45 41 33 35 39 48 53 55 56 55 60 60 57 60 58 58 65 63 69 68 68 66 61 59 58
42 43 48 40 35 28 37 45 50 48 44 42 45 46 48 52 54 58 61 68 71 68 65 71 69 66 66 58 58 60 61 61
34 32 47 45 47 44 38 38 48 56 52 53 54 52 55 58 60 63 64 68 68 63 60 61 65 59 55 58 58 62 62 64
33 36 31 44 43 50 52 47 46 53 56 53 56 58 59 63 66 68 60 62 60 60 62 61 60 59 56 59 69 67 65 66
13 23 31 40 43 42 47 49 48 51 55 59 63 63 62 64 63 61 58 63 62 61 59 57 54 57 62 63 65 64 69 66
14 14 17 22 25 33 43 50 54 54 54 57 59 57 55 53 55 57 56 56 58 52 54 52 56 60 63 63 65 68 65 68
14 20 22 21 20 19 24 28 32 36 37 43 45 49 49 50 46 48 46 48 48 50 53 55 53 59 59 57 61 58 62 63